Theta_e
329 329 332 334 332 330 329 329 329 331 330 327 328 328 328 327 327 326 321 320 324 325 326 327 326 325 326 327 327 327 326 328 329 329 330 330 330 325 321 322 322 320 317 316 316 314 312 310 308 308 307 306 306 306 306 306 306 305 305 305 305 305 305 305 305 306 308 308 309 309 309 310 311 312 312 313 314 314 313 311 308 306 305 304 304
325 327 331 332 329 328 328 329 328 328 329 328 327 327 327 326 326 327 324 321 323 325 325 325 326 325 326 326 327 328 327 327 328 329 330 329 329 327 321 321 323 323 321 319 318 317 315 313 312 311 310 309 308 307 306 306 306 305 305 305 305 305 305 304 305 305 306 307 308 308 309 309 310 312 313 313 313 313 313 312 310 307 305 304 304
325 327 330 330 329 328 328 329 329 329 329 328 328 327 327 326 325 325 325 324 322 324 325 325 326 325 325 325 326 328 328 328 328 329 329 328 328 328 324 321 323 324 324 322 320 319 318 316 315 314 313 312 311 310 308 307 306 306 305 305 305 305 305 305 304 304 305 305 307 308 308 309 310 311 312 313 313 313 313 313 311 309 306 305 304
327 328 329 329 329 328 328 328 329 329 330 329 329 329 328 327 324 320 321 323 321 321 324 325 326 325 325 325 326 327 328 328 329 328 328 328 328 328 327 324 322 323 325 324 323 321 320 319 318 317 316 316 314 313 313 310 309 306 305 305 305 305 305 305 304 304 305 304 305 307 308 308 309 310 312 312 313 313 313 313 312 311 308 306 304
328 329 330 330 329 329 329 329 330 330 331 330 330 329 328 327 323 318 317 320 320 318 318 321 325 326 326 326 326 327 327 327 328 328 328 328 327 328 328 327 325 324 324 325 325 324 322 321 321 320 319 319 317 316 315 314 313 310 308 306 305 305 304 304 304 304 304 305 305 305 306 308 308 310 311 312 313 313 313 313 312 312 310 308 305
328 329 330 330 330 330 330 331 331 331 331 330 330 329 328 327 324 322 321 320 321 317 312 316 323 326 327 327 326 326 326 327 327 328 328 328 328 328 328 328 328 327 326 325 324 325 324 324 323 322 322 321 320 319 318 317 315 314 312 310 308 306 305 304 304 304 304 304 305 305 305 306 308 309 310 312 313 313 313 313 312 312 311 310 307
329 330 330 331 330 330 330 331 331 331 332 331 331 330 328 327 325 326 324 321 323 320 314 315 320 324 326 326 326 327 326 326 327 327 327 328 328 328 328 328 328 329 329 328 326 325 325 325 325 324 324 323 322 321 320 318 317 316 315 314 312 311 309 307 305 305 304 304 304 305 305 305 306 308 309 311 312 313 313 313 313 312 312 310 308
329 330 331 331 331 331 331 331 331 331 332 331 332 331 329 327 325 326 327 324 324 323 320 317 319 323 325 324 325 326 327 327 327 327 327 327 327 328 328 328 328 328 328 329 329 327 326 326 327 326 325 325 324 322 321 320 318 317 316 316 315 314 313 311 310 308 306 305 304 304 305 305 305 307 308 310 312 313 313 313 313 312 312 311 309
326 328 329 330 331 331 331 331 332 331 332 331 331 332 329 327 326 326 327 327 326 325 325 323 320 320 321 324 326 324 325 327 327 327 326 327 327 327 327 327 328 328 326 327 329 330 328 326 326 327 327 326 325 324 322 321 320 319 319 319 318 317 315 313 313 312 311 308 305 304 305 306 306 306 308 310 311 313 313 313 312 312 311 311 310
325 325 326 328 330 331 332 331 332 331 331 332 331 332 331 329 328 326 325 327 327 325 325 326 325 323 320 321 324 325 324 325 326 326 326 326 326 326 327 328 328 328 327 326 328 329 329 328 326 326 327 327 327 326 325 323 322 321 321 321 321 320 319 316 314 313 313 312 311 308 306 306 307 307 307 309 310 312 313 313 312 312 311 311 310
323 324 324 325 328 330 330 331 332 331 331 331 331 332 331 330 330 327 325 325 326 324 323 324 325 326 326 322 321 323 324 324 324 326 327 326 326 326 327 327 328 328 327 327 327 328 329 329 328 326 326 326 326 327 326 325 324 324 323 323 323 322 321 321 318 315 313 313 315 315 311 308 307 307 307 308 310 312 313 314 313 312 311 310 310
316 320 322 321 324 327 327 328 329 331 331 331 331 331 331 330 330 328 326 325 324 324 323 323 322 324 326 325 322 321 323 323 323 325 327 327 327 327 326 326 327 328 328 327 328 328 328 327 326 326 327 326 325 325 326 326 326 325 325 325 325 324 323 323 323 319 315 312 315 319 318 314 310 308 307 308 309 311 312 314 313 312 311 310 309
307 316 319 317 320 324 325 324 325 328 330 330 330 331 331 331 330 329 328 327 325 324 325 325 325 324 324 325 325 324 325 325 324 325 327 327 328 327 327 326 326 327 327 327 327 327 328 326 324 326 329 328 326 325 324 325 326 326 326 326 326 326 325 325 324 323 319 314 314 319 321 320 317 311 308 307 308 310 312 313 314 313 312 311 309
304 312 318 319 319 322 323 323 323 324 326 328 329 330 330 330 330 330 330 329 328 328 327 327 327 326 325 325 326 326 328 328 327 327 327 327 327 327 327 327 326 326 327 327 326 327 328 327 326 327 328 329 328 327 325 322 322 324 326 326 327 327 326 325 325 324 323 318 314 314 317 321 321 316 311 309 307 308 310 312 314 314 313 311 310
310 314 319 321 320 321 321 322 322 322 325 327 328 329 329 330 329 330 330 330 330 330 329 328 328 327 326 326 327 327 328 328 328 329 329 328 328 328 327 327 326 326 326 327 327 327 328 328 328 328 327 327 328 329 328 326 323 322 324 326 327 327 327 326 325 325 325 323 317 312 312 317 321 319 317 314 311 309 309 309 312 314 314 312 311
317 319 320 319 319 320 320 321 321 321 322 324 325 327 328 329 329 329 329 330 330 330 330 330 329 329 328 329 329 328 328 327 327 329 329 328 329 329 329 328 328 327 327 328 328 328 328 328 329 329 328 326 326 327 327 328 327 323 323 325 326 327 327 327 327 326 325 325 322 315 310 313 319 322 321 319 317 315 313 310 309 311 314 313 312
316 318 319 318 318 319 319 319 319 319 320 320 321 322 324 326 327 328 328 329 329 329 329 330 330 330 330 330 329 328 328 326 327 328 328 328 329 329 329 330 329 329 329 329 329 329 328 329 329 329 328 326 324 324 324 325 327 326 323 323 324 326 327 327 327 326 325 325 325 321 315 313 317 321 323 322 320 320 319 316 312 310 311 313 314
312 315 317 317 317 318 318 318 318 318 318 319 319 319 320 321 323 325 326 326 328 328 328 328 328 329 329 330 330 329 329 327 327 328 327 327 327 328 329 329 329 330 330 330 330 330 330 329 330 329 329 328 326 325 324 324 325 326 326 325 325 325 326 327 327 327 326 325 325 325 322 317 315 318 322 323 322 322 322 321 318 314 311 312 313
307 308 310 313 314 315 315 316 316 315 315 316 316 316 316 315 316 320 322 323 325 326 326 326 326 326 326 328 329 329 329 328 328 329 329 329 327 328 329 328 328 329 329 329 330 330 330 329 329 329 329 329 328 326 326 326 326 327 327 327 326 325 325 326 327 327 327 326 326 326 326 323 319 318 320 323 323 323 323 323 322 319 314 312 312
305 306 306 306 307 308 308 309 311 311 311 311 310 310 309 307 309 313 315 318 320 322 323 323 324 324 324 325 327 327 328 328 328 328 328 329 328 328 328 327 328 328 328 328 329 330 329 328 328 329 329 329 329 328 327 328 328 328 327 326 326 325 326 326 326 326 326 327 326 326 326 326 325 322 320 321 322 323 324 324 324 322 320 316 313
305 305 305 305 305 305 305 305 306 307 308 307 305 305 305 305 305 306 307 310 314 316 318 319 321 321 322 323 324 324 325 326 327 327 327 327 328 328 328 327 328 328 328 328 328 328 328 328 328 329 330 330 329 329 329 329 329 329 328 327 327 326 326 326 325 325 326 326 326 326 326 326 327 326 323 322 322 322 323 324 324 323 322 321 318
306 306 306 306 306 305 305 305 305 306 306 306 305 305 305 305 305 304 305 305 306 308 311 313 314 316 317 319 321 321 322 323 323 324 324 325 326 326 325 325 325 326 327 327 328 328 327 327 327 328 329 329 330 330 330 330 329 329 329 328 328 328 327 327 326 326 325 325 326 326 326 325 326 327 327 326 325 324 323 324 323 323 323 322 322
306 306 306 306 305 306 305 306 305 305 305 305 305 306 306 306 306 305 305 305 305 305 305 306 307 307 309 312 315 315 316 318 320 320 321 322 322 323 323 323 322 322 323 323 324 325 326 326 327 327 327 328 329 329 329 329 329 329 329 328 328 328 328 328 327 326 326 325 326 326 326 325 325 326 327 327 327 326 325 325 324 324 323 322 322
307 306 306 306 306 306 306 306 306 305 305 305 305 305 306 306 306 306 306 305 305 305 305 304 304 304 304 305 307 307 308 311 313 313 315 318 319 319 319 320 321 321 320 319 318 318 319 321 324 326 327 327 328 329 328 327 327 327 327 327 328 328 328 328 328 327 326 326 326 326 326 326 325 326 326 327 328 327 327 326 325 325 325 324 323
307 307 307 306 306 306 306 306 306 306 305 305 305 306 306 306 306 306 306 306 306 305 305 305 305 304 304 304 304 305 305 305 305 305 307 309 314 317 318 318 318 319 318 317 316 316 315 317 321 323 325 326 327 327 328 327 327 326 326 325 326 327 327 328 328 328 327 326 326 326 326 326 326 326 326 326 327 327 327 327 327 326 325 325 325
309 308 307 307 306 306 306 306 306 306 306 305 305 305 306 306 306 306 306 305 305 305 305 305 305 304 304 304 304 304 304 303 303 303 303 304 308 314 315 315 315 315 315 316 316 317 317 318 320 321 323 324 324 325 326 326 327 326 326 324 324 325 326 327 328 328 328 327 327 327 326 326 326 326 326 326 327 327 327 327 327 327 326 326 325
312 309 308 307 307 307 307 307 307 306 306 305 305 305 305 305 305 305 305 305 305 305 304 304 304 304 304 304 304 303 303 303 303 304 305 304 304 306 308 310 313 314 314 315 315 316 317 318 318 319 319 320 323 324 324 325 325 324 323 323 324 325 326 326 327 328 328 328 328 328 327 327 327 327 326 326 326 326 326 326 326 327 327 327 326
314 310 308 308 307 307 307 307 307 307 307 306 306 305 305 305 305 305 305 305 305 304 304 304 303 303 303 303 303 303 303 303 303 303 304 304 304 304 303 305 309 312 313 314 315 316 317 317 318 318 319 320 322 323 323 323 323 322 322 323 324 325 326 326 327 327 327 328 328 328 328 328 328 327 327 326 326 326 325 326 326 326 326 326 326
314 311 309 309 308 307 307 307 307 307 307 307 306 306 305 305 305 305 305 305 305 304 304 304 303 303 303 302 302 302 302 302 303 302 302 302 304 305 305 305 306 309 311 313 313 315 315 315 316 316 317 318 321 321 321 321 321 320 321 322 322 323 325 326 326 326 326 326 327 327 327 327 327 327 327 326 326 326 325 325 325 325 325 326 326
313 312 312 311 309 308 308 308 308 307 307 307 307 306 305 305 304 304 304 304 305 304 304 304 303 303 303 303 302 302 302 302 302 302 302 302 302 303 305 307 308 308 310 312 312 312 312 313 313 315 316 317 318 319 318 318 318 315 313 315 318 320 322 323 324 325 325 325 325 326 326 326 326 327 327 326 326 326 326 326 326 326 326 326 326
313 313 313 312 312 311 309 308 308 308 308 307 307 306 306 305 305 305 304 304 304 304 304 304 303 303 303 303 302 302 302 301 302 302 301 302 302 302 303 306 307 307 308 310 311 311 311 313 313 312 314 314 313 312 310 310 311 309 305 306 309 313 316 318 320 321 322 325 325 326 326 326 326 327 326 326 326 326 326 325 325 326 326 326 326
313 313 313 313 313 313 312 310 309 308 308 308 307 307 306 306 305 305 305 304 304 305 304 304 303 303 303 302 302 302 301 301 302 302 302 302 301 301 301 302 304 304 304 307 310 311 310 311 309 308 308 308 308 308 307 306 306 305 303 302 303 305 306 310 314 316 317 320 323 324 325 326 326 326 326 326 326 326 325 325 325 326 326 326 326
314 314 313 313 314 314 313 312 311 309 309 308 308 307 307 307 306 305 305 304 304 305 304 304 304 303 302 302 302 302 301 301 301 302 304 304 303 303 304 304 305 305 305 306 308 310 310 309 310 310 309 308 307 307 307 306 305 304 304 304 303 303 302 306 313 316 315 314 316 320 322 324 324 325 325 326 326 326 325 325 325 325 325 326 326
316 316 315 314 314 314 314 314 313 311 310 309 308 308 307 307 306 306 305 304 304 304 304 304 304 303 302 302 302 302 301 300 300 301 303 304 304 305 306 306 306 307 307 306 306 308 308 308 308 310 310 308 308 308 308 306 304 303 304 304 304 304 304 307 313 317 317 313 310 311 314 318 322 323 324 324 325 325 325 325 325 325 325 325 325
318 318 318 317 316 315 314 314 314 313 312 310 309 308 307 307 307 306 305 304 304 304 304 304 304 303 303 302 302 302 301 301 300 300 301 302 303 305 306 306 306 306 306 305 304 305 307 307 307 308 309 309 308 309 309 307 305 303 303 304 304 305 306 307 308 312 315 314 310 308 308 311 316 320 322 322 323 324 325 325 325 325 325 325 326
319 319 319 318 318 316 315 315 314 314 313 312 310 309 308 307 307 307 306 305 304 304 304 303 303 303 303 303 302 302 301 301 299 299 301 302 302 303 304 305 306 306 306 305 304 305 306 307 307 306 307 306 306 307 308 308 307 306 304 304 304 305 307 309 308 310 314 315 310 306 306 308 311 315 318 320 321 322 323 324 325 326 325 325 325
318 319 319 318 318 317 316 316 315 315 314 313 311 310 309 308 307 307 306 305 304 303 303 303 303 303 303 303 302 302 302 301 300 299 299 299 299 299 301 303 305 306 307 306 305 305 306 306 307 306 305 305 306 306 306 306 307 307 307 307 305 304 305 306 307 306 308 310 307 304 306 309 311 313 315 317 318 319 321 322 323 324 325 325 325
319 319 319 319 318 317 316 315 315 315 314 314 313 311 310 309 308 307 306 305 304 303 303 303 303 303 303 302 302 302 302 301 300 299 298 297 297 297 298 299 301 302 304 304 305 305 305 306 307 307 306 306 306 305 304 305 305 305 305 306 306 305 306 307 308 308 307 309 309 307 307 311 314 316 316 316 317 316 318 319 321 322 323 324 325
320 320 320 320 320 319 317 316 315 315 315 314 313 312 311 310 309 308 307 306 304 303 303 303 302 302 302 302 302 302 301 300 300 298 297 297 296 296 297 297 298 300 301 302 303 304 305 305 306 306 306 306 306 306 305 305 305 305 305 306 307 309 310 311 312 312 312 312 311 308 306 307 310 312 314 317 318 317 317 317 318 319 321 322 323
321 322 322 321 321 320 319 317 316 315 315 314 313 313 312 310 309 308 307 306 305 303 303 302 302 303 303 302 302 302 301 300 299 297 297 296 296 295 296 297 298 300 302 302 303 304 304 304 305 305 305 306 306 306 306 306 307 307 307 307 308 308 307 306 306 308 309 310 310 310 309 308 308 307 308 312 315 316 317 316 316 316 317 320 321
321 321 322 321 321 320 319 317 316 316 315 314 314 314 313 310 309 308 307 306 304 303 302 302 302 303 303 302 302 302 301 300 298 297 296 296 295 295 295 295 296 298 301 302 303 303 304 304 304 305 305 305 305 306 306 307 307 308 308 307 306 305 304 304 303 304 305 307 308 310 311 312 313 313 311 310 309 311 314 315 316 316 315 316 319
321 320 320 320 319 319 318 317 316 315 315 315 315 314 313 310 309 308 307 306 304 302 302 302 302 302 302 302 302 301 301 300 298 297 296 296 295 295 295 294 295 296 298 300 302 302 303 304 304 304 305 305 305 305 305 305 305 305 305 306 306 305 305 304 304 304 306 308 309 310 312 313 314 316 316 313 308 306 309 312 313 316 317 315 315
317 319 319 319 319 317 316 316 316 315 315 315 314 314 313 311 308 307 306 304 303 302 302 302 302 302 302 301 301 300 299 298 297 296 296 295 295 295 295 295 295 295 296 297 298 299 301 302 303 303 304 304 304 304 304 304 304 304 305 306 306 306 305 305 305 306 307 309 310 311 313 314 315 316 316 316 313 310 312 313 311 314 318 317 316
311 316 319 319 319 318 316 315 315 315 314 314 314 313 312 310 308 306 305 303 303 302 302 302 302 301 301 300 299 298 296 296 296 295 295 295 295 295 295 295 296 296 296 296 296 297 298 300 301 302 303 304 304 304 304 304 304 304 304 305 305 305 305 305 305 306 306 307 309 310 311 312 314 315 315 317 315 311 312 314 312 313 318 319 318
306 312 317 319 319 318 317 316 315 315 314 314 314 313 311 310 308 305 303 303 303 302 302 302 301 301 300 299 297 295 295 295 295 295 295 295 295 295 296 296 296 296 296 296 296 296 296 297 298 299 301 302 303 303 304 303 303 303 303 303 304 304 304 305 305 305 305 305 306 308 309 309 310 311 313 315 315 311 310 313 313 314 318 319 318
304 306 311 316 318 317 317 316 315 314 314 314 313 312 311 309 307 304 303 303 303 302 302 302 301 300 298 296 295 294 294 294 294 294 295 295 295 295 296 296 297 297 297 297 297 297 297 297 297 297 298 299 300 301 302 302 302 302 302 302 302 302 303 304 304 304 304 304 304 305 307 307 307 308 309 312 314 313 312 315 314 314 317 319 319
309 309 311 314 316 317 317 316 314 314 314 313 312 311 310 308 306 304 303 303 303 302 302 301 300 297 296 294 294 294 294 294 294 294 295 295 295 296 296 296 296 296 296 297 297 298 298 298 298 298 298 298 298 298 299 300 300 300 300 301 301 301 301 302 302 302 302 302 302 303 304 304 305 305 306 309 313 314 315 315 315 314 316 318 318
312 313 313 314 316 317 317 316 314 314 313 312 311 311 308 306 305 303 303 302 302 301 300 299 297 295 294 294 294 293 294 294 294 295 295 295 296 296 296 296 296 296 296 296 297 297 298 298 298 299 299 299 298 298 298 299 299 299 299 299 300 300 300 300 301 301 302 302 302 302 303 304 304 305 306 307 310 313 314 315 315 314 315 317 318
312 313 314 314 315 316 317 315 314 314 312 311 310 308 306 305 303 302 301 300 299 298 297 296 294 293 293 293 293 294 294 294 295 295 296 296 296 295 295 295 295 295 296 296 296 296 296 296 296 297 297 297 297 297 297 297 298 298 298 298 298 299 300 300 301 301 302 303 303 303 304 305 306 306 308 308 308 310 312 313 314 313 312 314 317
312 312 313 313 314 316 316 315 314 313 311 310 308 306 305 304 303 301 299 298 296 295 295 294 294 294 293 293 294 294 295 295 295 296 296 295 295 295 295 295 295 295 295 295 295 295 295 295 295 295 295 296 295 295 295 296 296 296 297 297 297 297 298 299 300 301 302 303 303 304 304 305 306 307 308 309 309 309 310 312 312 312 310 310 314
312 312 312 313 314 315 314 313 312 311 310 308 306 305 303 302 302 301 299 296 294 294 294 294 295 295 294 294 295 295 295 295 296 296 296 295 294 294 293 293 293 294 294 294 294 294 294 295 295 295 295 295 295 295 295 295 295 295 295 296 296 296 297 297 298 299 301 302 303 303 304 305 306 307 308 309 310 310 310 310 311 311 310 308 310
Wind_Speed
9 11 11 10 10 12 12 11 11 11 12 12 11 10 9 9 8 7 10 13 11 11 12 11 11 11 10 10 10 10 12 11 9 8 6 6 6 4 2 2 3 2 3 4 4 3 3 2 2 2 1 1 1 2 2 2 3 3 2 2 1 1 2 2 2 2 1 1 1 1 2 3 4 5 7 9 10 13 15 16 16 16 15 15 14
11 11 12 11 12 12 12 11 12 12 12 12 12 11 10 9 8 7 8 12 12 11 12 13 11 11 11 10 10 10 11 11 10 8 7 6 6 6 4 2 2 3 3 3 4 4 4 4 4 3 2 2 2 2 1 2 3 4 4 4 3 2 1 1 2 2 2 2 2 1 1 1 2 3 5 6 8 10 12 14 14 14 14 14 13
11 12 13 13 13 12 13 13 12 13 12 13 13 12 12 12 10 8 8 11 13 12 11 12 13 12 11 11 11 11 11 11 10 9 8 7 7 7 7 6 4 3 3 3 4 5 5 5 5 4 4 3 2 2 2 2 3 4 5 5 5 4 3 2 2 2 2 2 3 2 1 0 1 2 3 4 6 7 9 11 13 13 13 13 12
13 14 15 14 13 13 14 14 13 14 14 14 14 13 12 14 13 11 10 12 14 14 12 11 13 13 12 12 12 12 11 11 11 10 9 8 8 8 8 8 6 4 4 3 3 4 5 6 5 5 4 3 2 2 2 2 2 3 5 6 6 6 5 4 3 4 4 3 3 3 3 2 1 0 1 2 4 5 7 9 10 11 12 11 11
14 15 16 15 14 13 14 15 15 15 14 14 15 14 13 12 11 10 9 10 12 16 16 13 12 13 13 12 12 13 12 12 11 11 10 9 9 9 9 9 8 7 5 3 2 2 3 4 4 4 4 2 2 1 1 1 2 3 4 5 6 7 7 6 6 6 6 5 5 4 4 4 3 2 1 1 2 3 5 6 8 9 10 10 10
14 14 16 15 14 14 14 14 14 14 13 13 15 16 15 12 9 8 9 9 11 16 17 15 14 14 14 13 13 13 13 13 13 12 12 11 10 10 10 10 10 9 8 6 3 2 1 2 2 3 3 3 2 2 1 1 1 2 3 3 4 5 6 7 7 7 7 7 7 6 6 5 5 4 3 2 2 2 3 4 6 7 8 9 9
13 14 14 14 13 13 13 12 12 12 12 13 15 17 17 13 11 10 11 11 11 13 14 14 15 15 15 15 15 13 13 14 14 13 13 12 12 11 11 11 11 10 9 8 6 4 2 1 1 2 2 2 2 2 1 1 1 2 2 2 2 3 4 5 7 8 8 8 9 8 7 7 7 6 5 4 3 3 3 3 4 5 6 7 8
11 12 14 14 12 13 13 12 11 11 11 12 13 16 17 15 13 12 12 11 11 12 13 13 14 14 15 15 15 15 14 14 15 15 14 13 13 12 12 12 12 12 11 10 9 7 5 3 2 1 1 1 1 1 1 1 1 2 3 3 2 1 1 3 5 7 8 9 10 10 9 8 8 8 7 5 4 4 4 3 3 4 5 6 6
6 9 11 12 12 11 10 10 10 10 10 11 11 14 17 17 16 16 15 13 12 12 12 12 13 14 14 15 15 15 15 15 14 14 14 15 14 13 13 13 13 13 12 11 11 10 8 6 4 3 2 1 1 1 1 0 0 2 3 4 4 4 2 0 2 5 7 9 9 10 11 11 10 9 9 8 6 5 5 4 3 3 4 5 5
5 7 8 9 9 9 9 8 8 9 9 9 10 12 16 17 17 18 18 16 15 14 13 12 12 12 13 14 15 15 15 16 15 14 14 15 15 14 13 13 14 14 14 13 12 12 11 9 7 6 4 4 3 2 2 2 2 0 2 2 3 3 4 3 2 2 5 7 8 9 10 12 12 11 10 9 8 6 6 5 5 4 4 4 5
7 6 6 6 6 7 10 10 8 7 8 9 9 10 14 17 18 19 20 20 18 18 17 15 14 12 12 13 15 16 16 16 16 15 14 14 14 14 14 14 15 15 15 14 13 12 12 11 9 8 7 6 5 5 4 2 3 3 2 1 2 2 3 4 4 3 3 6 8 8 8 10 12 12 11 10 9 8 7 6 5 5 4 4 4
7 5 4 4 4 4 6 9 9 8 8 8 8 9 12 15 17 19 21 22 22 22 21 19 18 17 16 16 17 17 17 17 17 15 14 14 14 14 14 14 14 14 14 13 13 12 12 12 11 11 10 9 7 6 6 5 4 4 3 3 3 3 3 3 4 5 3 4 7 8 8 9 10 11 12 11 10 9 8 7 6 6 5 4 4
6 5 3 4 4 2 2 4 6 7 8 9 10 9 10 11 14 17 20 21 22 22 22 21 21 20 19 20 22 20 17 17 19 17 15 15 15 16 15 15 14 13 13 14 13 13 13 13 12 12 12 12 10 8 7 7 7 7 6 5 5 5 5 4 4 4 4 3 5 9 10 9 8 9 10 11 11 10 9 8 7 7 6 5 4
5 5 3 3 2 1 1 2 2 4 5 8 9 8 8 9 11 13 16 18 18 19 20 20 20 19 18 19 21 21 17 15 18 18 16 15 16 17 16 15 15 14 13 14 14 14 14 14 14 14 13 13 12 11 9 8 8 8 8 7 7 8 7 7 6 4 3 4 4 8 11 11 9 8 7 8 10 10 10 9 8 8 7 7 6
4 4 3 2 2 2 2 2 2 3 3 3 5 6 5 5 7 8 10 12 14 17 18 17 17 17 16 15 15 16 15 15 15 14 15 15 15 16 15 14 14 14 14 14 15 15 14 14 14 15 14 14 13 13 13 11 10 8 9 10 9 10 9 9 8 6 5 5 3 6 10 12 12 10 7 6 7 8 9 10 10 9 8 8 7
6 5 4 3 3 4 3 3 3 3 2 2 2 3 4 3 4 4 5 6 9 12 14 14 15 15 15 13 11 9 10 12 12 13 16 14 14 14 14 14 14 14 14 15 15 15 15 15 15 16 16 15 15 15 15 14 14 11 10 11 11 11 11 10 10 10 9 8 5 5 8 11 12 12 10 8 6 6 7 8 10 11 10 9 8
7 6 5 4 4 4 4 3 3 3 3 2 2 2 2 2 2 3 4 4 4 5 8 10 11 12 12 11 9 8 9 11 11 14 17 15 15 14 12 12 12 13 14 14 15 15 16 17 16 16 16 15 16 16 16 16 17 16 13 13 13 13 13 12 12 12 11 11 8 6 6 9 11 13 12 10 9 8 7 7 8 10 11 10 9
7 7 6 5 4 4 4 4 3 3 4 3 2 2 2 1 2 2 3 4 3 2 4 6 7 8 11 11 9 9 9 11 10 11 13 15 19 17 13 12 9 9 11 11 12 13 15 16 15 16 17 16 16 16 17 17 17 17 15 14 14 14 14 14 13 13 13 13 11 8 7 7 9 12 13 13 12 11 10 9 8 8 10 11 11
7 6 6 5 4 4 4 4 4 3 4 3 2 2 2 2 2 2 1 2 2 3 3 4 5 7 9 10 11 10 8 8 8 8 8 11 15 15 15 15 13 12 12 10 9 8 12 16 15 15 16 16 16 16 17 18 17 17 17 16 16 15 15 15 15 15 15 15 14 12 10 8 7 9 11 14 15 14 13 12 10 9 9 11 12
6 6 6 6 6 6 6 6 5 5 5 4 2 2 1 1 2 1 1 1 1 2 3 2 3 6 7 7 8 8 7 7 8 9 9 8 9 11 11 13 15 16 15 14 12 10 12 14 13 12 12 13 15 16 16 16 17 18 18 19 19 17 17 17 17 17 16 16 17 15 13 12 10 9 10 12 14 15 15 15 14 12 11 11 12
5 5 6 6 6 6 6 6 6 6 5 4 3 3 3 2 1 1 1 1 1 1 2 2 2 3 3 3 4 4 6 7 7 7 8 8 8 8 9 10 13 14 14 16 16 17 17 16 14 13 12 12 14 14 14 14 15 16 17 18 18 19 19 19 18 18 18 18 18 18 17 15 14 14 12 10 12 14 15 16 16 15 14 14 14
4 4 4 4 4 4 4 4 5 5 4 4 4 4 4 4 4 3 2 1 1 1 2 2 3 3 2 3 3 3 4 5 6 5 6 8 8 8 9 11 13 13 15 17 17 20 21 19 20 19 16 14 14 13 13 14 15 14 14 15 15 17 19 20 20 20 20 20 20 20 20 19 18 17 16 14 12 11 13 15 15 15 15 15 15
3 3 3 3 2 2 2 3 4 4 5 4 4 5 5 5 5 5 5 4 3 2 1 2 3 4 3 4 4 5 5 5 6 5 5 6 8 9 9 9 12 13 16 18 19 22 23 22 21 20 19 18 17 17 16 17 19 18 18 17 16 16 17 18 20 21 21 21 21 22 22 22 21 20 19 19 16 14 13 13 14 15 15 15 15
4 3 3 2 1 0 1 2 3 4 4 4 3 4 4 5 5 6 7 7 6 6 5 4 3 3 3 3 4 5 6 7 7 7 6 6 7 8 8 9 10 11 12 15 18 19 20 19 17 15 16 16 14 15 16 17 20 22 21 22 22 21 19 18 19 21 23 23 23 23 23 23 23 22 21 21 21 19 17 16 14 15 15 15 15
5 4 4 3 2 2 2 2 2 2 2 2 2 2 3 4 4 5 6 7 7 7 7 6 5 5 4 3 3 4 6 7 8 8 8 8 7 8 8 9 10 11 11 13 14 14 14 14 13 13 14 13 11 12 13 13 15 18 18 20 22 23 22 21 20 21 22 24 24 24 24 24 24 24 24 23 23 23 21 20 18 16 15 15 15
6 6 5 4 4 4 3 3 3 3 3 2 1 2 2 3 4 5 5 6 6 6 6 6 6 6 5 5 4 4 6 7 8 8 9 9 7 8 9 9 11 12 11 11 10 10 10 9 10 11 12 12 13 14 12 11 12 15 15 16 18 19 21 23 24 24 23 23 25 25 25 25 25 25 25 26 26 25 24 23 23 21 19 17 15
8 8 7 6 6 5 5 5 5 5 4 3 2 1 2 2 3 4 5 5 5 6 6 5 5 5 5 4 4 5 6 6 6 7 8 10 9 9 10 9 10 10 10 9 9 9 9 8 9 10 11 12 12 12 13 12 13 16 16 15 16 16 18 20 22 24 25 24 25 25 26 27 27 26 26 27 28 29 28 26 26 26 25 22 19
10 10 9 8 7 7 7 7 7 6 6 5 3 2 1 1 2 3 4 5 6 7 7 7 6 5 5 4 4 5 5 5 6 6 7 8 10 10 11 10 9 10 9 9 8 7 7 6 6 7 7 9 10 11 13 12 14 17 16 14 15 15 16 17 18 21 23 24 25 25 26 27 27 28 28 28 29 30 31 29 28 28 28 27 25
12 11 10 10 9 9 9 9 9 8 8 7 5 4 3 3 3 3 4 5 6 7 7 8 8 7 7 6 5 5 6 5 6 6 7 7 7 8 9 9 9 10 10 11 9 7 7 7 8 7 7 7 9 11 12 10 14 19 16 15 16 15 16 18 18 18 20 21 22 25 27 28 27 27 28 29 30 31 32 32 31 30 29 29 29
14 13 12 11 11 11 11 11 11 10 9 8 8 7 5 5 5 5 4 4 5 6 6 7 7 7 7 7 7 7 7 7 7 7 7 8 8 7 7 8 9 10 10 12 13 12 11 10 9 8 8 9 11 13 14 12 15 20 21 20 19 19 21 21 19 18 19 19 20 22 25 28 27 27 27 28 29 31 33 34 34 32 31 31 30
16 16 15 14 13 12 13 13 12 12 12 11 10 8 7 7 7 7 7 6 6 6 7 7 7 7 7 8 7 7 9 10 10 10 10 9 9 8 8 8 9 11 11 12 14 14 12 11 11 11 12 15 16 18 21 19 19 23 25 24 22 24 27 25 22 21 21 20 21 22 23 25 26 27 27 27 27 29 31 34 36 35 35 34 31
17 18 17 17 16 15 14 15 15 14 14 13 12 10 10 9 9 9 10 8 7 8 8 9 9 8 8 10 9 9 11 11 10 11 12 12 11 10 9 9 10 12 13 12 15 16 14 14 17 17 17 18 19 21 23 22 23 25 25 24 24 26 28 26 24 25 25 24 23 24 24 25 25 26 26 26 26 26 27 30 34 37 38 37 35
19 19 19 18 18 17 16 16 16 16 16 15 14 13 12 12 11 11 11 10 8 8 9 9 9 9 9 9 9 10 13 12 11 11 10 11 12 11 10 9 10 11 13 13 16 17 17 16 17 16 16 18 20 20 20 22 24 24 23 23 22 22 24 23 21 23 26 27 27 26 26 26 26 27 27 26 26 27 27 27 29 33 37 39 40
20 20 20 20 19 19 18 18 17 18 18 18 17 16 15 15 14 13 12 11 10 10 10 9 9 11 11 9 8 11 14 14 13 11 8 9 10 9 9 10 10 11 12 14 16 17 19 18 17 17 17 18 19 18 18 21 23 23 23 23 21 20 20 20 19 19 23 28 30 30 29 28 27 28 28 28 27 28 30 30 30 31 34 37 40
22 21 21 21 21 20 20 19 20 20 20 20 19 18 17 17 16 16 14 13 13 13 12 11 10 11 13 12 12 13 15 15 15 13 11 10 9 9 10 11 12 13 14 16 18 18 19 20 19 17 16 16 18 17 16 20 22 22 21 21 21 20 18 19 21 20 21 26 31 32 30 29 30 30 30 30 30 30 31 31 31 32 33 35 38
26 25 24 23 22 22 22 22 22 22 22 22 21 20 19 19 18 17 16 15 14 14 13 13 13 13 14 14 14 15 16 17 17 15 12 11 11 11 11 12 13 14 15 17 19 19 18 19 20 19 19 20 20 18 16 18 20 21 21 20 19 19 18 19 19 19 20 25 32 33 31 29 31 31 31 32 32 32 32 32 31 32 33 35 36
28 28 27 25 23 22 23 24 24 25 25 24 23 22 21 20 19 18 17 16 16 16 15 15 15 15 15 16 16 17 18 18 17 16 14 14 15 14 13 13 12 13 14 16 18 19 20 20 20 21 22 22 21 21 20 19 19 20 19 19 19 20 20 20 21 22 22 25 29 31 30 30 31 32 33 33 33 33 33 33 33 33 33 34 36
26 28 29 27 26 25 24 25 26 26 27 27 26 24 24 23 21 20 20 18 18 17 17 16 16 17 17 17 18 19 19 20 20 19 18 18 18 17 17 16 15 15 16 17 18 20 21 21 21 20 21 21 21 23 23 21 21 22 21 21 21 21 18 17 18 20 21 22 24 26 28 30 30 31 33 33 34 34 34 35 35 35 35 36 36
21 26 28 27 27 28 28 27 27 27 27 27 25 24 25 25 25 24 23 22 21 20 19 18 18 18 19 19 19 20 20 21 21 21 21 21 21 20 20 19 18 17 17 18 18 19 20 21 22 21 20 19 19 20 21 20 20 22 22 21 18 15 13 14 15 16 17 20 22 25 27 29 30 33 33 31 31 33 34 35 36 36 36 37 38
18 22 24 24 25 28 30 30 29 29 28 27 25 25 26 27 27 26 25 24 23 22 22 21 20 20 20 20 21 21 22 22 22 22 22 22 22 22 21 20 19 18 18 18 18 19 20 21 22 21 20 19 18 18 19 18 17 16 15 15 16 17 19 21 22 21 20 21 22 23 24 25 28 31 34 35 34 32 32 34 36 37 38 37 38
18 20 20 22 24 26 28 30 31 33 33 33 31 31 30 30 28 27 26 25 24 23 22 22 21 21 21 22 23 23 23 23 23 23 24 23 23 23 22 21 21 20 19 19 19 19 19 20 21 20 20 20 19 18 17 16 15 15 15 17 21 24 24 26 27 26 23 22 22 21 21 22 22 23 27 33 37 36 35 35 35 36 38 38 38
16 17 17 17 19 22 25 28 32 35 36 36 35 33 31 30 28 28 27 26 25 24 23 22 22 22 22 22 24 25 26 26 25 25 25 24 24 24 24 23 23 22 22 21 21 20 20 21 22 21 21 21 20 19 19 19 19 20 20 20 21 22 22 24 26 24 20 19 20 21 20 20 20 20 22 27 34 37 37 37 37 36 36 38 38
15 16 17 16 17 19 22 26 32 36 37 37 36 34 33 31 29 28 27 26 25 24 23 22 21 21 22 23 24 26 28 28 28 28 27 27 26 25 25 25 25 25 25 26 26 25 24 23 23 22 23 23 21 20 21 21 20 21 20 18 18 18 19 20 21 19 16 14 15 18 19 18 18 20 21 23 27 31 30 32 37 36 34 34 36
15 16 18 18 17 17 19 24 29 34 37 37 35 33 32 31 30 28 26 25 24 23 21 21 20 20 22 23 25 27 28 28 28 28 29 29 29 29 28 28 27 27 27 28 29 29 28 27 26 25 24 24 23 21 20 20 19 19 19 18 18 18 19 19 20 20 19 17 17 18 19 19 18 19 21 21 24 28 27 29 34 35 32 32 33
18 16 16 18 18 17 19 24 28 32 35 35 34 32 31 30 28 26 25 24 22 20 20 20 21 22 23 25 26 27 28 29 29 29 29 29 29 30 31 31 31 30 29 29 29 30 31 31 32 32 29 26 24 22 20 19 20 21 21 21 20 20 21 21 21 21 21 21 20 19 19 20 20 21 22 21 23 27 28 28 32 33 30 30 31
21 20 18 19 18 17 20 25 29 32 34 34 34 32 30 28 26 24 24 23 20 19 20 21 22 24 25 26 26 27 27 28 29 29 29 29 29 30 30 30 30 29 30 30 29 29 30 31 34 36 35 32 31 28 24 21 22 23 24 23 23 23 23 23 23 23 23 24 24 23 23 23 22 24 25 22 21 24 23 24 28 31 29 27 28
19 18 16 18 19 19 21 26 31 34 35 35 34 32 29 27 25 23 22 21 19 20 22 23 24 25 26 26 27 27 28 28 29 29 29 29 30 31 31 31 31 31 30 30 27 25 24 25 28 29 28 27 28 28 25 23 24 26 26 25 25 25 25 25 25 26 26 26 26 26 29 29 26 27 28 23 20 20 20 23 27 29 29 26 25
17 15 14 16 18 21 22 26 32 36 36 34 33 30 28 26 22 20 19 19 19 20 22 24 26 26 26 27 26 26 28 28 28 30 30 29 29 31 32 32 32 32 31 30 29 28 27 28 29 28 26 25 25 26 26 26 28 29 29 28 25 22 23 25 26 26 25 25 25 26 29 29 26 27 28 25 22 21 20 22 27 31 30 27 23
16 16 15 15 18 22 25 29 34 37 36 34 32 29 26 23 18 15 15 15 16 19 22 23 25 26 27 28 27 27 28 28 28 30 30 28 29 30 30 31 31 30 30 28 28 29 30 32 34 35 35 36 35 35 34 34 33 31 31 33 28 22 24 27 27 26 24 23 22 22 25 26 22 22 24 23 24 25 22 21 27 32 32 29 25
16 16 16 16 19 23 25 30 36 38 36 33 30 25 22 19 17 14 13 12 13 17 19 20 22 23 26 28 30 30 29 28 28 28 27 26 28 27 26 25 26 26 26 25 24 24 24 27 29 31 34 36 37 38 39 39 38 36 37 41 34 25 27 31 29 27 26 24 22 20 23 25 21 20 22 20 20 23 21 20 26 31 30 29 28
17 18 17 18 21 23 26 31 35 36 33 29 25 21 19 18 16 15 15 15 16 17 18 18 19 21 24 27 29 29 29 29 29 28 26 26 26 25 23 22 23 24 23 22 21 21 20 21 22 23 24 25 26 28 29 30 32 33 37 42 38 31 31 33 30 27 27 25 21 19 23 25 21 20 21 19 18 19 18 19 25 29 29 29 29
Wind_Direction
220 219 217 216 218 222 225 225 219 217 218 215 219 226 226 233 239 238 230 223 219 224 222 221 234 227 219 228 227 224 224 220 215 212 214 213 214 227 231 155 139 145 146 145 141 115 101 101 94 95 106 213 226 241 238 222 218 216 206 212 212 137 142 147 143 158 164 148 99 63 59 56 47 43 41 40 44 49 50 50 49 51 55 57 58
225 220 218 220 225 229 231 233 232 231 228 222 223 230 232 230 228 226 231 228 215 218 225 217 223 230 224 223 225 225 223 223 223 215 219 227 224 232 258 249 174 154 146 151 151 133 118 114 112 111 111 117 139 166 188 190 195 208 209 210 222 211 183 175 161 162 178 188 184 170 78 57 46 39 37 38 41 46 50 51 50 49 52 56 58
230 226 223 224 227 231 236 239 240 241 238 229 230 234 234 234 233 215 216 231 220 213 221 218 218 224 227 224 223 226 222 219 219 219 222 230 237 241 254 258 230 189 163 148 146 138 126 119 120 123 121 117 126 136 143 159 175 196 207 211 221 227 226 210 195 196 206 209 200 197 200 167 49 32 23 29 34 42 48 50 51 49 50 53 57
230 233 234 232 231 233 240 246 247 248 244 237 236 234 234 241 243 229 216 222 221 213 213 215 215 217 223 223 223 226 226 223 220 222 226 228 237 242 247 252 246 225 199 169 143 137 131 123 123 124 118 113 126 135 138 148 163 187 205 213 218 226 233 230 215 209 217 226 216 208 206 211 217 311 349 5 18 29 40 45 49 49 49 51 54
228 234 240 241 239 239 244 246 247 249 246 242 238 231 234 241 242 244 235 223 219 218 218 217 215 215 218 221 225 227 226 231 229 226 229 231 237 242 244 249 247 239 227 208 177 149 133 127 126 121 111 103 100 96 119 154 169 185 202 215 218 222 230 235 231 220 219 228 229 221 214 213 220 222 253 311 344 5 24 35 42 45 47 48 51
230 232 241 245 243 243 248 247 245 247 243 238 235 227 230 233 224 224 221 211 210 218 224 222 218 217 217 217 224 227 226 231 234 234 235 233 235 239 240 241 241 242 238 231 222 215 184 142 128 119 113 104 94 87 93 118 151 172 191 204 215 219 227 235 239 237 230 230 233 232 224 216 217 220 226 253 286 323 355 15 28 36 41 45 47
238 236 241 245 244 246 251 252 248 246 239 233 230 224 225 226 215 207 209 208 205 213 223 224 221 220 221 222 223 225 228 231 233 234 237 236 237 238 238 235 234 235 235 236 237 239 243 233 168 122 122 111 100 95 98 104 120 128 143 162 188 205 220 234 241 247 243 239 238 236 234 226 221 220 219 228 252 278 307 338 6 21 31 39 44
242 241 242 244 247 250 253 251 246 240 232 228 225 220 221 220 211 205 209 211 207 212 221 224 225 224 226 229 230 229 230 232 233 234 236 237 238 239 238 237 235 232 229 231 236 240 244 243 231 180 156 129 111 101 100 110 125 107 93 95 100 112 193 231 242 253 252 248 244 240 238 234 228 225 221 220 232 255 274 294 324 355 13 26 36
242 241 240 241 241 246 250 245 239 234 230 227 222 217 217 216 212 208 207 208 210 216 220 222 226 230 233 233 235 237 236 236 236 236 237 236 235 236 237 236 236 237 234 232 234 237 237 238 242 242 245 251 256 353 30 39 119 108 91 84 80 73 66 66 247 257 260 257 250 243 240 237 234 230 226 222 222 238 257 271 290 319 347 4 19
231 235 235 235 229 231 238 237 235 232 227 223 219 218 217 216 215 213 211 208 212 218 223 225 225 229 234 233 235 240 240 239 237 235 234 234 234 232 234 234 234 236 234 232 233 235 235 232 238 245 248 252 258 284 320 338 331 41 84 71 71 72 66 52 28 285 267 264 253 243 241 239 236 234 232 229 225 228 242 258 274 290 318 340 353
218 225 230 232 224 226 230 227 226 225 223 221 217 214 216 218 217 217 215 213 215 220 223 227 230 231 234 235 237 240 241 241 238 236 232 230 232 230 231 234 234 233 232 232 233 236 239 234 236 244 246 246 251 258 266 285 303 309 338 355 341 13 48 50 36 5 290 263 252 239 239 242 242 238 234 234 232 230 236 248 261 273 292 315 333
216 217 223 228 225 232 235 229 225 220 221 226 226 220 218 220 220 221 221 219 219 222 223 226 232 234 236 238 240 240 242 242 238 235 232 229 230 230 230 232 234 234 234 235 236 239 241 239 241 246 245 244 244 245 251 254 258 273 286 291 298 312 345 21 30 19 350 278 253 242 238 241 248 247 239 236 237 236 239 246 253 261 271 288 311
212 202 205 221 222 226 235 234 234 228 227 231 233 232 228 222 221 226 228 226 224 225 226 228 232 236 238 242 245 243 239 241 239 233 230 231 231 231 230 230 231 233 235 235 235 236 238 239 240 240 241 245 246 240 240 246 247 249 256 268 280 285 295 315 347 10 3 316 258 245 243 239 244 253 249 241 240 241 242 247 253 258 264 271 288
191 177 177 201 206 197 186 208 229 228 229 233 234 235 231 221 222 229 233 231 229 228 228 230 234 239 241 245 252 250 241 238 240 238 235 233 234 236 234 234 233 230 232 232 230 231 234 238 240 238 235 238 244 244 238 236 239 242 248 258 267 273 277 283 295 323 344 335 278 249 247 241 239 247 255 248 243 245 246 248 254 259 265 270 278
135 136 141 160 152 136 134 149 171 176 187 208 220 223 220 214 215 223 232 234 232 229 229 231 232 233 238 247 255 256 250 244 240 241 241 235 235 239 238 238 236 232 232 233 231 231 235 239 241 243 242 238 240 244 244 242 240 237 242 252 256 261 267 270 275 280 293 315 310 259 248 241 237 237 245 253 250 251 251 251 253 257 264 270 278
113 118 131 142 134 129 127 127 142 148 143 157 180 198 206 199 184 192 214 226 230 228 227 231 231 230 236 243 245 248 254 252 241 237 241 240 241 243 241 241 238 234 234 236 236 236 240 242 241 243 244 241 240 243 245 247 249 244 237 244 248 250 255 259 263 263 270 288 302 283 254 240 236 236 238 245 250 256 259 255 251 252 258 265 275
117 123 127 125 123 128 128 122 128 128 117 130 154 162 188 203 180 186 206 195 192 211 218 223 226 228 228 225 225 229 242 251 247 246 247 243 242 241 238 241 239 238 240 240 242 243 246 248 246 246 245 242 242 243 244 244 248 249 242 238 239 242 247 250 254 256 259 270 282 288 269 244 237 238 239 239 243 250 256 254 249 248 251 255 265
112 124 125 122 119 120 119 115 122 131 128 131 144 142 140 163 163 196 228 196 171 186 210 217 223 227 219 212 217 223 232 240 244 257 254 245 247 242 230 231 232 234 239 244 250 250 250 251 250 250 249 247 244 243 244 243 245 247 246 242 236 235 241 244 247 249 251 256 265 274 271 255 245 241 239 239 243 248 252 253 250 249 250 251 255
99 110 117 119 113 111 115 115 114 118 125 126 133 148 158 189 177 167 212 186 186 215 215 215 237 245 225 213 221 222 221 225 228 246 253 252 254 245 238 241 238 234 234 236 244 249 250 251 253 256 256 253 251 251 252 252 251 248 247 249 247 242 241 242 242 242 244 247 253 260 261 261 259 248 240 239 243 247 251 254 254 252 253 253 253
99 102 106 107 107 107 104 105 101 91 92 98 101 105 118 205 205 190 203 177 163 203 209 209 236 251 235 218 228 231 227 228 229 236 244 255 254 241 244 248 240 240 242 238 237 243 251 254 255 257 259 256 254 255 257 256 255 253 251 251 252 249 244 242 241 239 240 241 244 249 253 256 258 255 246 242 246 248 251 255 259 259 257 257 256
108 109 109 106 104 102 97 95 91 85 82 76 73 78 70 66 79 83 171 216 228 185 189 201 215 238 238 233 243 240 235 240 242 244 250 260 259 247 249 246 239 242 245 243 245 248 251 256 256 253 253 258 258 256 255 253 251 255 258 256 252 250 246 242 239 237 235 236 239 242 246 249 252 254 251 247 249 250 250 252 257 261 260 260 260
122 120 117 115 104 92 83 76 70 71 67 51 49 56 55 54 54 50 59 58 292 239 210 221 239 245 236 239 250 242 239 248 259 271 266 264 266 267 267 261 258 258 252 249 252 254 253 253 257 258 257 258 257 255 251 250 250 249 252 255 254 252 249 244 239 235 232 231 233 237 240 243 247 250 250 249 248 248 250 252 255 259 261 261 261
153 144 139 137 119 85 61 46 43 46 48 43 37 37 40 44 47 46 42 41 36 10 307 275 271 267 243 232 238 240 237 235 244 260 268 266 269 272 274 273 272 272 266 260 257 257 258 259 263 267 269 266 260 256 254 254 256 253 250 252 255 256 255 250 243 238 233 229 230 233 236 238 241 245 248 248 248 249 250 252 256 259 260 261 261
187 182 183 180 177 104 10 12 15 25 36 42 41 38 41 42 44 46 42 35 34 31 22 10 346 319 288 259 256 259 254 245 244 251 253 253 263 270 272 276 277 277 276 271 267 266 264 263 265 270 274 274 268 263 264 264 263 262 259 255 255 254 253 252 249 244 238 233 231 233 235 236 238 241 244 245 247 250 250 249 252 256 258 261 262
214 213 212 211 225 255 289 308 328 351 3 23 43 47 49 49 46 42 39 32 25 23 21 18 14 7 358 334 302 283 277 274 269 267 262 255 258 271 275 276 277 276 277 277 277 278 273 264 258 257 260 262 260 259 264 268 269 269 265 258 255 254 253 252 250 246 242 239 235 234 236 238 238 238 239 241 245 250 250 248 249 251 255 261 264
226 228 231 228 232 245 259 275 291 306 319 334 7 42 49 42 36 34 31 23 17 15 11 8 5 1 358 352 336 314 305 305 302 295 288 278 265 264 272 278 279 279 279 277 273 272 271 263 253 250 252 254 256 260 265 269 268 268 270 271 267 263 258 253 249 245 242 242 239 236 237 240 242 241 239 238 242 247 248 248 250 251 253 259 262
221 228 237 238 241 248 255 266 276 284 294 306 324 360 50 38 15 13 14 8 3 1 358 357 354 351 349 345 334 322 315 314 313 308 303 301 293 282 281 286 289 287 282 279 275 268 263 261 259 255 254 256 258 262 264 265 265 266 272 280 277 272 265 257 251 247 245 244 242 239 238 239 241 243 242 240 240 244 246 247 248 250 254 257 258
222 233 240 241 245 249 254 262 269 277 284 293 307 318 333 348 338 340 348 348 347 347 345 343 343 341 341 337 325 317 312 307 304 299 296 301 304 301 297 293 290 290 291 289 285 278 269 269 272 263 255 257 257 254 253 259 267 269 273 275 269 267 267 261 254 251 248 247 245 243 240 239 240 241 243 241 240 242 245 247 247 248 252 255 256
231 242 244 243 246 248 251 258 265 272 279 286 294 304 312 310 303 310 321 327 333 337 336 336 339 341 343 345 340 332 326 321 313 306 301 299 296 297 299 296 288 286 291 292 288 281 276 275 276 268 259 260 263 261 259 262 264 261 260 261 260 262 264 261 258 256 255 253 249 245 242 241 242 242 243 242 240 241 243 246 247 247 248 252 255
241 247 247 245 247 249 252 257 261 267 272 277 283 291 298 300 295 293 295 304 312 319 325 329 335 339 343 347 348 346 342 341 336 330 326 319 312 301 291 288 283 277 276 282 285 283 280 278 277 273 267 264 266 268 268 267 267 264 260 258 258 259 259 258 259 259 260 259 255 248 244 243 244 244 244 244 243 242 241 243 246 247 246 248 252
247 248 249 249 249 249 254 259 261 264 267 268 273 280 285 290 293 292 291 296 300 307 318 324 329 335 338 341 347 346 344 346 344 340 337 331 327 318 299 287 281 275 271 273 278 282 282 277 271 267 268 268 269 272 274 275 275 274 272 269 264 259 257 258 262 261 258 257 256 253 249 246 245 245 246 246 245 244 242 242 244 246 247 246 247
250 250 251 252 254 254 255 259 262 264 265 266 267 270 274 281 286 287 292 300 303 306 313 320 325 329 334 339 340 338 341 346 341 334 334 330 329 327 313 301 292 288 284 277 275 278 280 279 278 279 279 276 275 278 281 283 280 278 280 278 273 267 263 262 263 262 259 255 254 254 252 251 248 246 247 245 242 241 240 241 243 244 246 247 246
252 252 252 252 255 256 256 258 261 263 265 266 267 268 269 274 276 278 286 294 295 297 306 314 319 322 330 337 332 328 334 338 335 329 322 317 320 322 312 301 293 289 288 283 280 282 285 285 285 286 284 282 282 282 282 283 282 282 284 283 280 277 273 268 264 263 262 257 254 252 252 253 253 251 249 246 241 237 237 239 241 243 245 247 247
254 254 255 254 254 254 255 257 258 261 264 265 266 267 267 270 274 275 278 280 278 281 291 298 303 310 320 327 321 318 324 329 331 328 311 301 303 297 286 284 279 276 277 279 281 283 287 289 288 287 287 287 287 285 282 282 283 284 284 283 283 281 277 269 261 260 262 260 257 254 252 251 253 253 252 250 245 240 239 240 241 242 243 245 246
255 255 255 256 256 254 254 256 257 259 261 262 263 265 265 268 273 275 276 275 273 277 282 284 287 296 307 314 313 314 320 324 325 324 315 306 299 283 276 277 277 277 276 279 282 283 285 289 291 289 287 286 285 285 283 284 289 291 288 284 282 279 276 271 265 262 263 263 261 257 254 253 252 252 252 252 251 246 244 244 243 242 242 244 245
257 256 256 256 256 255 254 254 255 258 259 260 262 263 264 266 269 272 275 275 275 276 279 281 285 291 297 304 306 309 314 317 319 320 314 304 297 290 284 281 281 283 282 284 287 285 282 285 287 287 285 285 287 286 283 284 289 293 294 291 285 279 273 270 269 264 259 260 262 262 259 256 253 253 252 251 252 252 250 248 246 245 244 244 245
259 258 255 252 249 249 251 252 253 257 260 260 262 263 264 265 266 269 273 275 274 275 276 279 284 289 293 298 302 305 309 312 314 314 308 302 301 297 291 284 277 275 275 279 283 282 280 281 282 285 287 288 288 287 286 286 286 289 292 291 289 286 279 271 267 265 262 263 266 265 262 258 256 254 253 251 251 253 254 252 249 246 244 245 246
258 257 255 252 249 245 243 245 248 253 257 259 260 260 261 264 266 269 272 273 273 272 273 277 281 285 290 295 299 303 307 310 311 311 308 306 305 302 298 293 286 279 274 274 276 278 279 280 280 282 285 286 286 288 291 291 288 288 290 291 292 295 292 280 271 270 271 270 267 263 259 257 255 253 252 252 252 252 253 254 254 251 247 246 247
247 253 256 256 254 249 244 243 243 247 251 252 252 253 257 262 265 266 268 269 270 269 270 274 279 284 289 294 298 303 307 309 310 311 310 309 307 304 302 299 295 289 283 279 278 276 276 277 278 279 281 282 283 285 289 290 288 291 294 293 294 294 288 278 271 267 266 265 266 265 263 259 257 254 253 253 252 252 252 252 254 254 253 250 249
243 254 258 255 253 250 247 243 241 242 242 240 242 250 257 261 261 262 263 263 264 265 267 270 275 280 286 290 295 300 305 308 309 308 308 307 305 302 299 295 290 285 281 279 277 276 276 276 277 278 279 279 279 280 285 287 287 290 290 285 282 282 281 280 277 272 267 266 266 268 268 266 263 260 257 254 252 252 253 253 252 253 254 254 253
252 255 251 247 250 249 244 242 241 240 238 238 244 250 254 255 255 255 256 258 259 261 264 268 273 277 281 286 292 296 300 303 305 304 304 303 302 299 297 293 287 282 278 275 273 273 273 273 274 276 276 275 276 278 279 278 277 279 279 277 280 285 287 287 284 280 275 273 270 267 265 265 263 260 257 256 254 253 253 253 252 252 253 254 255
250 249 243 238 242 246 244 242 241 238 237 242 247 246 247 249 249 249 252 255 256 258 262 267 272 277 282 288 294 299 301 302 302 301 302 302 301 299 297 293 287 281 275 271 270 270 270 271 272 272 272 271 271 273 275 275 276 279 281 282 283 287 288 287 287 286 280 275 274 271 266 261 258 255 255 257 257 255 254 254 253 253 252 253 255
249 249 248 237 233 242 243 240 239 238 238 243 245 244 245 246 245 246 251 253 254 257 261 267 273 280 287 293 298 301 303 304 305 305 304 303 301 298 295 292 288 282 277 273 271 268 266 267 269 268 269 269 269 269 271 274 277 278 280 280 279 281 282 282 282 282 277 271 271 271 267 259 255 255 255 255 255 254 254 254 253 253 253 252 253
259 250 248 243 238 238 234 234 239 240 240 242 243 241 242 242 242 244 248 250 254 259 264 270 278 285 291 295 299 301 303 304 305 306 306 305 304 301 297 293 289 284 279 275 273 270 267 265 265 264 264 267 269 269 269 271 274 276 276 275 275 275 275 274 273 272 271 267 266 268 265 256 251 254 256 254 252 250 251 253 253 254 256 255 253
263 251 244 242 237 230 229 236 240 240 240 241 238 236 238 239 240 242 245 249 255 262 270 277 283 288 292 297 300 302 304 305 305 306 306 305 303 301 299 296 293 290 286 280 275 272 268 264 261 260 260 261 263 263 262 264 269 272 273 272 272 272 271 270 269 271 272 267 264 267 267 258 250 251 252 253 255 254 253 255 255 253 256 258 256
258 253 244 238 231 226 232 239 239 238 240 237 233 234 237 237 237 240 245 253 260 268 275 281 286 291 295 299 302 303 304 304 304 303 302 300 298 295 293 292 290 288 286 284 281 278 274 269 265 263 261 259 258 258 259 262 266 270 271 271 270 269 269 269 267 268 267 263 260 263 266 264 259 257 255 253 256 258 255 256 256 254 252 254 255
251 249 243 235 229 227 235 239 237 237 236 231 230 234 235 235 237 241 248 257 265 273 280 286 291 296 299 301 302 303 302 301 300 298 296 295 293 291 289 287 285 283 279 277 275 272 271 269 269 269 265 260 258 257 256 256 256 257 259 263 267 268 268 268 267 266 262 260 259 260 263 265 266 265 262 257 254 256 254 255 258 256 251 249 250
245 242 238 232 229 229 234 237 235 234 230 227 229 232 233 234 236 241 251 262 271 279 285 291 295 298 299 300 301 301 299 299 298 295 295 294 291 289 288 287 286 284 279 275 270 265 260 256 255 256 256 255 255 254 252 249 247 246 247 250 257 264 266 266 266 264 262 260 258 256 259 264 266 265 265 259 251 249 247 251 258 257 248 241 244
241 239 235 228 226 229 232 233 232 229 225 224 226 226 227 230 233 241 256 268 277 283 288 293 296 298 299 299 299 298 297 297 295 293 293 294 291 289 287 285 284 282 279 277 275 272 269 263 257 255 255 255 253 253 253 251 249 248 248 250 253 257 260 262 263 263 261 259 254 249 253 258 259 259 262 260 253 249 243 243 255 258 250 239 239
237 238 233 226 227 232 235 234 230 226 221 219 220 220 223 230 235 243 257 267 275 283 289 293 294 295 297 299 300 299 298 298 297 294 294 294 293 290 286 284 281 278 277 276 275 273 274 273 271 268 266 264 261 260 259 257 254 249 246 248 252 255 256 258 260 263 262 257 251 245 248 253 253 251 255 258 255 250 241 238 250 257 255 246 239
238 235 228 226 231 236 237 231 225 220 216 214 214 218 225 233 241 250 262 271 279 284 288 290 290 292 297 301 302 303 303 302 300 297 296 296 295 292 287 282 278 276 276 276 275 273 273 273 273 273 272 272 272 270 267 265 263 256 249 248 248 249 253 255 256 258 260 257 250 242 244 249 249 247 248 247 248 247 238 236 247 253 256 253 244